CZ-4B DEB, 40531

Orbit data source: Space-Track

CZ-4B DEB, 40531 is space debris in LEO originally from a launch on Fri, 25 Oct 2013 UTC launched from the Jiuquan Satellite Launch Center, China (JSC). Debris objects in space refer to the collection of defunct objects orbiting the Earth. Examples of debris include non-operational satellites, rocket bodies, and fragments generated from explosions, collisions, or faulty payload assembly.

Loading next visibility...
Identifier
40531, 2013-057D
Orbit
LEO
Country
Flag of CNCN / PRC
Related business
Manufacturer
SAST
Mission
Spacecraft
Bus & Motor
Unknown
Mass
Unknown
Launch date (UTC)
2013-10-25 (12 years ago)
Launch vehicle
Unknown
Launch site
Jiuquan Satellite Launch Center, China (JSC)
Object type
Payload
Rocket body
Debris
Shape & HBR
Unknown shape, 0.1 m
Radar Cross Section
Small (<0.1 m²)

Expand to show TLE details & history
Last TLE update: 2 days ago

TLE from 2 days ago
0 CZ-4B DEB
1 40531U 13057D   26104.34959147  .00002065  00000-0  36494-3 0  9996
2 40531  74.9711 348.2377 0179671  34.4771 326.7898 14.57880223582519
Epoch: 2026-04-14T08:23Z
TLE epoch observation values (Epoch: 2026-04-14T08:23:24.703Z)
Latitude
-0.00004°
Longitude
19.85765°
Altitude
596.997 km
Speed
7.618 km/s
True Right ascension
23h 12m 57s
True Declination
0° 00' 00"
Sunlit
Object was in daylight at epoch
Visualization orbit readout
Latitude
Unknown
Longitude
Unknown
Altitude
Unknown
Speed
Unknown
Apparent Right ascension
Unknown
Apparent Declination
Unknown
Sunlit
N/A
Visualization observer readout
Local Sidereal Time
03:29:48
Azimuth
Unknown
Elevation
Unknown
Doppler factor
Unknown
Orbital elements
Apogee altitude
824.677 km
Perigee altitude
570.418 km
Semi-major axis
7,075.684 km
Eccentricity
0.01797
Inclination
74.9711°
RAAN
348.2377°
Arg. of periapsis
34.4771°
True anomaly
325.64063°
Mean anomaly
326.7898°
Eccentric anomaly
326.21739°
Mean motion
3.64662 °/min
Orbital period
98.72 mins
BSTAR
0.00036494
Loading maneuver chart data...
Computing Atmospheric mass density...
Loading historical data...
Loading historical data...
Loading historical data...
Loading historical data...
Loading historical data...
Loading historical data...
Loading historical data...
Other satellites on launch #57 in the year 2013 (2013-10-25 UTC)

Documentation

Showing up to 5 results
|